Location: Civry
(47.2902°N, 4.6156°E)
Time: 23:44:27
(UTC+00:00)

H-2A R/B - Pass Details

Date: 09 April 2020
Orbit: 734 x 836 km, 98.2° (Epoch: 30 May)

Event Time Altitude Azimuth Distance (km) Brightness Sun altitude
Rises 19:56:41 0° 191° (S) 3,286 5.1 -15.6°
Reaches altitude 10° 19:59:15 10° 201° (SSW) 2,344 4.4 -15.9°
Maximum altitude 20:03:53 33° 264° (W) 1,289 3.7 -16.6°
Drops below altitude 10° 20:08:26 10° 328° (NNW) 2,301 5.5 -17.2°
Sets 20:10:57 0° 338° (NNW) 3,217 6.2 -17.6°
